Location: West Cummington
(42.4920°N, 72.9680°W)
Time: 01:19:56
(UTC-04:00)

ATLAS 2AS CENTAUR R/B - Visible Passes

Search period start: 24 April 2017 00:00
Search period end: 04 May 2017 00:00
Orbit: 909 x 1303 km, 63.7° (Epoch: 20 April)

Date Brightness Start Highest point End Pass type
(mag) Time Alt. Az. Time Alt. Az. Time Alt. Az.
24 Apr 4.1 00:13:05 29° E 00:13:05 29° E 00:17:53 10° NE visible
24 Apr 3.2 02:00:29 57° W 02:01:30 62° NW 02:09:34 10° NNE visible
24 Apr 4.8 03:48:14 10° WNW 03:54:18 23° NNW 04:00:27 10° NNE visible
24 Apr 4.6 23:29:17 18° E 23:29:17 18° E 23:32:12 10° ENE visible
25 Apr 2.9 01:16:41 85° NNW 01:16:41 85° NNW 01:24:44 10° NE visible
25 Apr 4.5 03:04:05 17° WNW 03:08:45 29° NNW 03:15:36 10° NNE visible
25 Apr 5.2 04:58:09 10° NW 05:02:51 16° N 05:07:31 10° NNE visible
26 Apr 3.2 00:32:49 61° E 00:32:49 61° E 00:39:47 10° NE visible
26 Apr 4.1 02:20:13 28° W 02:23:22 37° NW 02:30:50 10° NNE visible
26 Apr 5.1 04:11:56 10° NW 04:17:01 17° NNW 04:22:08 10° NNE visible
26 Apr 3.7 23:48:54 39° E 23:48:54 39° E 23:54:41 10° NE visible
27 Apr 3.6 01:36:17 43° W 01:38:09 51° NW 01:46:03 10° NNE visible
27 Apr 5.0 03:25:36 10° WNW 03:31:16 20° NNW 03:37:01 10° NNE visible
27 Apr 5.3 05:21:01 10° NNW 05:25:48 16° N 05:30:32 10° NE visible
27 Apr 4.2 23:04:53 25° E 23:04:53 25° E 23:09:17 10° NE visible
28 Apr 3.1 00:52:16 66° W 00:53:06 71° NW 01:01:15 10° NNE visible
28 Apr 4.7 02:39:39 11° W 02:45:39 25° NNW 02:52:07 10° NNE visible
28 Apr 5.3 04:35:21 10° NW 04:39:57 16° N 04:44:33 10° NE visible
28 Apr 4.6 22:20:48 15° E 22:20:48 15° E 22:23:17 10° ENE visible
29 Apr 2.9 00:08:10 82° SE 00:08:14 82° ESE 00:16:23 10° NE visible
29 Apr 4.4 01:55:32 19° W 02:00:11 32° NW 02:07:17 10° NNE visible
29 Apr 5.2 03:49:17 10° NW 03:54:06 16° N 03:58:55 10° NNE visible
29 Apr 3.1 23:23:56 56° ESE 23:23:56 56° ESE 23:31:23 10° NE visible
30 Apr 4.0 01:11:18 28° W 01:14:52 42° NW 01:22:31 10° NNE visible
30 Apr 5.2 03:03:00 10° WNW 03:08:18 18° NNW 03:13:40 10° NNE visible
30 Apr 5.3 04:57:51 10° NNW 05:02:54 17° NNE 05:07:52 10° NE visible
30 Apr 3.6 22:39:34 37° ESE 22:39:34 37° ESE 22:46:10 10° NE visible
01 May 3.4 00:26:54 40° WSW 00:29:43 58° NW 00:37:45 10° NNE visible
01 May 5.0 02:16:40 10° WNW 02:22:36 22° NNW 02:28:39 10° NNE visible
01 May 5.4 04:12:24 10° NNW 04:17:03 16° N 04:21:41 10° NE visible
01 May 4.0 21:54:58 24° ESE 21:54:58 24° ESE 22:00:35 10° ENE visible
01 May 3.0 23:42:17 49° SW 23:44:44 81° NW 23:52:55 10° NE visible
02 May 4.7 01:30:29 10° W 01:37:03 27° NNW 01:43:47 10° NNE visible
02 May 5.4 03:26:33 10° NW 03:31:12 16° N 03:35:51 10° NNE visible
02 May 4.4 21:10:03 14° ESE 21:10:22 14° E 21:14:05 10° ENE visible
02 May 2.9 22:57:21 45° S 22:59:56 71° ESE 23:08:00 10° NE visible
03 May 4.3 00:44:38 10° WSW 00:51:38 35° NW 00:58:59 10° NNE visible
03 May 5.3 02:40:23 10° NW 02:45:22 17° NNW 02:50:23 10° NNE visible
03 May 5.4 04:34:33 10° NNW 04:39:57 19° NNE 04:45:14 10° ENE visible
03 May 3.2 22:11:50 30° SSE 22:15:18 48° ESE 22:22:56 10° NE visible
